RA76464 UNKL-UERR

Flight info

Callsign RA76464
Flight time 2h 5m
Altitude 33000
Route N0480F330 PENAP W263 BARIK W339 LANAP W105 NUSPO
Aircraft IL76/H-Q/L

Departure

Time 2026-04-16 04:16
Airport Krasnoyarsk International Airport (UNKL)

Arrival

Time 2026-04-16 06:22
Airport Mirny Airport (UERR)
Time Latitude Longitude Altitude Speed Heading
2026-04-16 03:49 56.18301 92.47048 945 ft 0 kts 23°
2026-04-16 04:04 56.18294 92.47042 945 ft 2 kts 24°
2026-04-16 04:04 56.18280 92.47031 945 ft 2 kts 24°
2026-04-16 04:05 56.18266 92.47019 945 ft 2 kts 33°
2026-04-16 04:05 56.18257 92.46999 945 ft 2 kts 72°
2026-04-16 04:05 56.18256 92.46973 945 ft 2 kts 110°
2026-04-16 04:05 56.18262 92.46947 945 ft 2 kts 112°
2026-04-16 04:06 56.18268 92.46921 945 ft 1 kts 112°
2026-04-16 04:06 56.18269 92.46921 945 ft 0 kts 112°
2026-04-16 04:07 56.18268 92.46922 945 ft 1 kts 112°
2026-04-16 04:07 56.18261 92.46953 945 ft 5 kts 112°
2026-04-16 04:08 56.18243 92.47031 945 ft 9 kts 112°
2026-04-16 04:08 56.18214 92.47154 945 ft 13 kts 112°
2026-04-16 04:08 56.18175 92.47321 945 ft 17 kts 112°
2026-04-16 04:08 56.18125 92.47534 945 ft 19 kts 113°
2026-04-16 04:09 56.18070 92.47767 945 ft 21 kts 113°
2026-04-16 04:09 56.18007 92.47962 945 ft 11 kts 175°
2026-04-16 04:09 56.17922 92.47915 945 ft 15 kts 203°
2026-04-16 04:09 56.17840 92.47948 945 ft 14 kts 116°
2026-04-16 04:10 56.17795 92.48129 945 ft 18 kts 113°
2026-04-16 04:10 56.17740 92.48356 945 ft 22 kts 114°
2026-04-16 04:10 56.17674 92.48624 945 ft 24 kts 111°
2026-04-16 04:10 56.17611 92.48908 945 ft 19 kts 112°
2026-04-16 04:11 56.17559 92.49139 945 ft 22 kts 112°
2026-04-16 04:11 56.17495 92.49408 945 ft 25 kts 113°
2026-04-16 04:11 56.17427 92.49688 945 ft 24 kts 113°
2026-04-16 04:11 56.17359 92.49974 945 ft 26 kts 113°
2026-04-16 04:12 56.17285 92.50278 945 ft 27 kts 114°
2026-04-16 04:12 56.17207 92.50597 945 ft 26 kts 112°
2026-04-16 04:12 56.17147 92.50868 945 ft 24 kts 112°
2026-04-16 04:12 56.17082 92.51150 945 ft 23 kts 113°
2026-04-16 04:13 56.17018 92.51416 945 ft 24 kts 112°
2026-04-16 04:13 56.16950 92.51704 945 ft 26 kts 113°
2026-04-16 04:13 56.16878 92.52007 945 ft 24 kts 113°
2026-04-16 04:13 56.16801 92.52147 945 ft 14 kts 193°
2026-04-16 04:14 56.16708 92.52077 945 ft 15 kts 201°
2026-04-16 04:14 56.16652 92.51984 945 ft 8 kts 277°
2026-04-16 04:14 56.16663 92.51942 945 ft 0 kts 295°
2026-04-16 04:15 56.16664 92.51936 945 ft 4 kts 295°
2026-04-16 04:15 56.16702 92.51787 945 ft 37 kts 294°
2026-04-16 04:15 56.16894 92.50979 946 ft 102 kts 292°
2026-04-16 04:15 56.17239 92.49503 1010 ft 145 kts 292°
2026-04-16 04:16 56.17646 92.47774 1429 ft 158 kts 291°
2026-04-16 04:16 56.18068 92.45853 1882 ft 174 kts 290°
2026-04-16 04:16 56.18580 92.43590 2124 ft 223 kts 292°
2026-04-16 04:16 56.19233 92.40867 2415 ft 235 kts 293°
2026-04-16 04:17 56.19881 92.38236 2708 ft 228 kts 292°
2026-04-16 04:17 56.20638 92.35732 3033 ft 229 kts 303°
2026-04-16 04:17 56.21663 92.33564 3374 ft 232 kts 312°
2026-04-16 04:17 56.22873 92.31598 3761 ft 235 kts 318°
2026-04-16 04:18 56.24189 92.29818 4164 ft 237 kts 322°
2026-04-16 04:18 56.25567 92.28156 4570 ft 239 kts 324°
2026-04-16 04:18 56.26978 92.26571 4975 ft 240 kts 325°
2026-04-16 04:18 56.28417 92.25029 5383 ft 241 kts 326°
2026-04-16 04:19 56.29867 92.23517 5793 ft 242 kts 326°
2026-04-16 04:19 56.31307 92.22013 6202 ft 242 kts 326°
2026-04-16 04:19 56.32772 92.20485 6614 ft 244 kts 326°
2026-04-16 04:19 56.34255 92.18959 7026 ft 246 kts 326°
2026-04-16 04:20 56.35760 92.17443 7449 ft 248 kts 329°
2026-04-16 04:20 56.37430 92.16575 7853 ft 253 kts 348°
2026-04-16 04:20 56.39209 92.16816 8223 ft 262 kts
2026-04-16 04:20 56.40878 92.18152 8584 ft 271 kts 29°
2026-04-16 04:21 56.42279 92.20499 8956 ft 279 kts 49°
2026-04-16 04:21 56.43224 92.23611 9346 ft 287 kts 69°
2026-04-16 04:21 56.43700 92.27151 9778 ft 299 kts 78°
2026-04-16 04:21 56.44222 92.30893 10214 ft 314 kts 73°
2026-04-16 04:22 56.44925 92.34728 10646 ft 328 kts 70°
2026-04-16 04:22 56.45738 92.38573 11070 ft 328 kts 68°
2026-04-16 04:22 56.46606 92.42402 11463 ft 329 kts 68°
2026-04-16 04:22 56.47511 92.46229 11847 ft 331 kts 67°
2026-04-16 04:23 56.48424 92.50023 12231 ft 334 kts 67°
2026-04-16 04:23 56.49352 92.53885 12626 ft 336 kts 66°
2026-04-16 04:23 56.50295 92.57769 13029 ft 338 kts 66°
2026-04-16 04:23 56.51252 92.61682 13439 ft 340 kts 66°
2026-04-16 04:24 56.52206 92.65611 13843 ft 342 kts 66°
2026-04-16 04:24 56.53165 92.69579 14250 ft 344 kts 66°
2026-04-16 04:24 56.54122 92.73506 14657 ft 346 kts 65°
2026-04-16 04:24 56.55099 92.77524 15075 ft 349 kts 65°
2026-04-16 04:25 56.56076 92.81555 15497 ft 351 kts 65°
2026-04-16 04:25 56.57062 92.85631 15927 ft 353 kts 65°
2026-04-16 04:25 56.58052 92.89724 16359 ft 355 kts 65°
2026-04-16 04:25 56.59051 92.93850 16796 ft 358 kts 65°
2026-04-16 04:26 56.60038 92.97948 17232 ft 360 kts 65°
2026-04-16 04:26 56.61039 93.02132 17678 ft 362 kts 65°
2026-04-16 04:26 56.62039 93.06351 18128 ft 365 kts 65°
2026-04-16 04:26 56.63051 93.10612 18580 ft 367 kts 64°
2026-04-16 04:27 56.64075 93.14894 19020 ft 371 kts 64°
2026-04-16 04:27 56.65106 93.19228 19394 ft 375 kts 64°
2026-04-16 04:27 56.66147 93.23627 19757 ft 381 kts 64°
2026-04-16 04:27 56.67188 93.28013 20130 ft 384 kts 64°
2026-04-16 04:28 56.68253 93.32495 20515 ft 387 kts 64°
2026-04-16 04:28 56.69323 93.37028 20905 ft 390 kts 64°
2026-04-16 04:28 56.70398 93.41586 21298 ft 393 kts 64°
2026-04-16 04:28 56.71486 93.46171 21700 ft 395 kts 63°
2026-04-16 04:29 56.72747 93.50661 22140 ft 397 kts 56°
2026-04-16 04:29 56.74209 93.54882 22585 ft 400 kts 51°
2026-04-16 04:29 56.75831 93.59015 23035 ft 401 kts 48°
2026-04-16 04:29 56.77542 93.63074 23482 ft 403 kts 46°
2026-04-16 04:30 56.79296 93.67067 23923 ft 405 kts 45°
2026-04-16 04:30 56.81096 93.71059 24372 ft 407 kts 45°
2026-04-16 04:30 56.82915 93.75049 24826 ft 409 kts 45°
2026-04-16 04:30 56.84723 93.79015 25277 ft 412 kts 44°
2026-04-16 04:31 56.86560 93.83049 25735 ft 414 kts 44°
2026-04-16 04:31 56.88416 93.87115 26197 ft 418 kts 44°
2026-04-16 04:31 56.90289 93.91200 26669 ft 421 kts 44°
2026-04-16 04:31 56.92175 93.95321 27147 ft 424 kts 44°
2026-04-16 04:32 56.94075 93.99463 27623 ft 427 kts 44°
2026-04-16 04:32 56.95994 94.03680 28019 ft 432 kts 45°
2026-04-16 04:32 56.97916 94.07937 28415 ft 433 kts 45°
2026-04-16 04:32 56.99852 94.12202 28787 ft 436 kts 44°
2026-04-16 04:33 57.01801 94.16482 29159 ft 438 kts 45°
2026-04-16 04:33 57.03736 94.20749 29523 ft 441 kts 44°
2026-04-16 04:33 57.05706 94.25100 29906 ft 444 kts 44°
2026-04-16 04:33 57.07686 94.29479 30293 ft 446 kts 44°
2026-04-16 04:34 57.09677 94.33890 30691 ft 450 kts 45°
2026-04-16 04:34 57.11674 94.38339 31099 ft 452 kts 45°
2026-04-16 04:34 57.13688 94.42817 31509 ft 456 kts 45°
2026-04-16 04:34 57.15721 94.47346 31924 ft 459 kts 45°
2026-04-16 04:35 57.17764 94.51899 32349 ft 462 kts 45°
2026-04-16 04:35 57.19794 94.56432 32682 ft 467 kts 46°
2026-04-16 04:35 57.21868 94.61072 32836 ft 468 kts 46°
2026-04-16 04:35 57.23946 94.65730 32824 ft 469 kts 46°
2026-04-16 04:36 57.28088 94.75039 32805 ft 468 kts 46°
2026-04-16 04:36 57.32183 94.84283 32798 ft 467 kts 46°
2026-04-16 04:37 57.36299 94.93614 32797 ft 467 kts 46°
2026-04-16 04:37 57.40400 95.02959 32796 ft 467 kts 47°
2026-04-16 04:38 57.44484 95.12365 32797 ft 467 kts 46°
2026-04-16 04:38 57.48580 95.21767 32797 ft 467 kts 47°
2026-04-16 04:39 57.52644 95.31128 32798 ft 467 kts 47°
2026-04-16 04:39 57.56716 95.40559 32798 ft 467 kts 47°
2026-04-16 04:40 57.60787 95.50005 32799 ft 467 kts 47°
2026-04-16 04:40 57.64825 95.59416 32800 ft 466 kts 47°
2026-04-16 04:41 57.68882 95.68911 32800 ft 466 kts 47°
2026-04-16 04:41 57.72908 95.78363 32801 ft 467 kts 47°
2026-04-16 04:42 57.76953 95.87904 32801 ft 466 kts 47°
2026-04-16 04:42 57.80307 95.95839 32801 ft 466 kts 48°
2026-04-16 04:43 57.84972 96.06965 32802 ft 466 kts 48°
2026-04-16 04:43 57.88326 96.15000 32802 ft 466 kts 48°
2026-04-16 04:44 57.92311 96.24565 32803 ft 466 kts 48°
2026-04-16 04:44 57.96302 96.34225 32804 ft 466 kts 48°
2026-04-16 04:45 58.00287 96.43883 32804 ft 466 kts 49°
2026-04-16 04:45 58.04247 96.53568 32804 ft 465 kts 49°
2026-04-16 04:46 58.08203 96.63258 32805 ft 466 kts 49°
2026-04-16 04:46 58.12122 96.72909 32805 ft 465 kts 49°
2026-04-16 04:47 58.16054 96.82650 32806 ft 465 kts 50°
2026-04-16 04:47 58.19987 96.92410 32806 ft 464 kts 50°
2026-04-16 04:48 58.23849 97.02125 32807 ft 464 kts 50°
2026-04-16 04:48 58.27763 97.11889 32807 ft 464 kts 50°
2026-04-16 04:49 58.31662 97.21679 32807 ft 463 kts 50°
2026-04-16 04:49 58.35571 97.31437 32815 ft 462 kts 49°
2026-04-16 04:50 58.39609 97.40883 32818 ft 462 kts 47°
2026-04-16 04:50 58.43742 97.50275 32820 ft 462 kts 47°
2026-04-16 04:51 58.47874 97.59692 32820 ft 462 kts 47°
2026-04-16 04:51 58.52016 97.69099 32821 ft 462 kts 47°
2026-04-16 04:52 58.56153 97.78547 32821 ft 462 kts 47°
2026-04-16 04:52 58.60264 97.87903 32821 ft 462 kts 47°
2026-04-16 04:53 58.64399 97.97366 32821 ft 462 kts 47°
2026-04-16 04:53 58.68516 98.06846 32821 ft 461 kts 48°
2026-04-16 04:54 58.72621 98.16342 32822 ft 461 kts 48°
2026-04-16 04:54 58.76715 98.25839 32822 ft 460 kts 48°
2026-04-16 04:55 58.80777 98.35280 32822 ft 460 kts 48°
2026-04-16 04:55 58.84861 98.44807 32822 ft 460 kts 49°
2026-04-16 04:56 58.88934 98.54363 32823 ft 460 kts 49°
2026-04-16 04:56 58.92982 98.63876 32824 ft 460 kts 49°
2026-04-16 04:57 58.97049 98.73486 32823 ft 460 kts 49°
2026-04-16 04:57 59.01074 98.83042 32824 ft 459 kts 49°
2026-04-16 04:58 59.05124 98.92665 32825 ft 460 kts 49°
2026-04-16 04:58 59.09155 99.02320 32825 ft 459 kts 49°
2026-04-16 04:59 59.13167 99.12000 32825 ft 459 kts 50°
2026-04-16 04:59 59.17185 99.21701 32826 ft 459 kts 50°
2026-04-16 05:00 59.21164 99.31349 32826 ft 458 kts 50°
2026-04-16 05:00 59.25160 99.41070 32827 ft 458 kts 50°
2026-04-16 05:01 59.29150 99.50807 32827 ft 458 kts 50°
2026-04-16 05:01 59.33139 99.60590 32828 ft 459 kts 50°
2026-04-16 05:02 59.37094 99.70337 32829 ft 459 kts 50°
2026-04-16 05:02 59.41063 99.80148 32829 ft 458 kts 51°
2026-04-16 05:03 59.45018 99.89966 32830 ft 458 kts 51°
2026-04-16 05:04 59.50928 100.04736 32831 ft 457 kts 51°
2026-04-16 05:04 59.54830 100.14559 32832 ft 458 kts 51°
2026-04-16 05:05 59.58758 100.24468 32833 ft 458 kts 51°
2026-04-16 05:05 59.62684 100.34402 32834 ft 458 kts 51°
2026-04-16 05:06 59.66603 100.44368 32834 ft 458 kts 51°
2026-04-16 05:06 59.70493 100.54296 32835 ft 458 kts 51°
2026-04-16 05:07 59.74404 100.64317 32836 ft 458 kts 51°
2026-04-16 05:07 59.78298 100.74349 32837 ft 458 kts 51°
2026-04-16 05:08 59.82183 100.84391 32838 ft 458 kts 52°
2026-04-16 05:08 59.86037 100.94400 32839 ft 458 kts 52°
2026-04-16 05:09 59.89905 101.04502 32840 ft 458 kts 52°
2026-04-16 05:09 59.93734 101.14568 32841 ft 458 kts 52°
2026-04-16 05:10 59.97582 101.24699 32843 ft 458 kts 52°
2026-04-16 05:10 60.01431 101.34872 32844 ft 458 kts 52°
2026-04-16 05:11 60.05272 101.45062 32845 ft 457 kts 52°
2026-04-16 05:11 60.09065 101.55166 32846 ft 456 kts 52°
2026-04-16 05:12 60.12862 101.65353 32847 ft 456 kts 53°
2026-04-16 05:12 60.16689 101.75584 32849 ft 457 kts 52°
2026-04-16 05:13 60.20469 101.85751 32850 ft 457 kts 53°
2026-04-16 05:13 60.24280 101.96016 32851 ft 457 kts 53°
2026-04-16 05:14 60.28069 102.06326 32852 ft 457 kts 53°
2026-04-16 05:14 60.31857 102.16647 32854 ft 457 kts 53°
2026-04-16 05:15 60.35321 102.27404 32856 ft 457 kts 61°
2026-04-16 05:15 60.38032 102.38971 32855 ft 457 kts 67°
2026-04-16 05:16 60.40411 102.50918 32856 ft 457 kts 69°
2026-04-16 05:16 60.42648 102.62981 32858 ft 456 kts 70°
2026-04-16 05:17 60.44841 102.74960 32859 ft 455 kts 70°
2026-04-16 05:17 60.47007 102.87027 32861 ft 455 kts 70°
2026-04-16 05:18 60.49151 102.99091 32862 ft 454 kts 70°
2026-04-16 05:18 60.51287 103.11168 32863 ft 454 kts 70°
2026-04-16 05:19 60.53394 103.23166 32864 ft 453 kts 71°
2026-04-16 05:19 60.55502 103.35281 32865 ft 453 kts 71°
2026-04-16 05:20 60.57589 103.47325 32866 ft 453 kts 71°
2026-04-16 05:20 60.59675 103.59450 32868 ft 453 kts 71°
2026-04-16 05:21 60.61737 103.71501 32869 ft 453 kts 71°
2026-04-16 05:21 60.63800 103.83649 32870 ft 453 kts 71°
2026-04-16 05:22 60.65849 103.95797 32872 ft 453 kts 71°
2026-04-16 05:22 60.67888 104.07975 32873 ft 453 kts 71°
2026-04-16 05:23 60.69897 104.20080 32874 ft 452 kts 71°
2026-04-16 05:23 60.71898 104.32272 32876 ft 451 kts 71°
2026-04-16 05:24 60.73894 104.44375 32880 ft 451 kts 71°
2026-04-16 05:24 60.75869 104.56546 32883 ft 451 kts 71°
2026-04-16 05:25 60.77839 104.68730 32885 ft 450 kts 72°
2026-04-16 05:25 60.79786 104.80860 32887 ft 450 kts 72°
2026-04-16 05:26 60.81729 104.93066 32889 ft 450 kts 72°
2026-04-16 05:26 60.83660 105.05274 32890 ft 449 kts 72°
2026-04-16 05:27 60.85572 105.17477 32891 ft 449 kts 72°
2026-04-16 05:27 60.87464 105.29613 32893 ft 449 kts 72°
2026-04-16 05:28 60.89360 105.41838 32895 ft 449 kts 72°
2026-04-16 05:28 60.90923 105.52005 32896 ft 448 kts 72°
2026-04-16 05:29 60.92794 105.64246 32897 ft 448 kts 72°
2026-04-16 05:29 60.94650 105.76480 32899 ft 448 kts 72°
2026-04-16 05:30 60.96498 105.88738 32900 ft 448 kts 72°
2026-04-16 05:30 60.98338 106.01031 32902 ft 448 kts 73°
2026-04-16 05:31 61.00152 106.13240 32903 ft 447 kts 73°
2026-04-16 05:31 61.01964 106.25530 32904 ft 446 kts 73°
2026-04-16 05:32 61.03760 106.37802 32906 ft 446 kts 73°
2026-04-16 05:32 61.05534 106.50002 32912 ft 446 kts 73°
2026-04-16 05:33 61.07308 106.62296 32919 ft 446 kts 73°
2026-04-16 05:33 61.09071 106.74614 32923 ft 447 kts 73°
2026-04-16 05:34 61.10812 106.86871 32925 ft 446 kts 73°
2026-04-16 05:34 61.12549 106.99187 32927 ft 445 kts 73°
2026-04-16 05:35 61.14277 107.11525 32929 ft 445 kts 74°
2026-04-16 05:35 61.15981 107.23783 32931 ft 445 kts 74°
2026-04-16 05:36 61.17682 107.36134 32933 ft 445 kts 74°
2026-04-16 05:36 61.19372 107.48488 32935 ft 444 kts 74°
2026-04-16 05:37 61.21039 107.60766 32939 ft 444 kts 74°
2026-04-16 05:37 61.22704 107.73131 32941 ft 444 kts 74°
2026-04-16 05:38 61.24357 107.85511 32943 ft 444 kts 75°
2026-04-16 05:38 61.26130 107.97726 32947 ft 444 kts 70°
2026-04-16 05:39 61.28515 108.09587 32946 ft 444 kts 65°
2026-04-16 05:39 61.31173 108.21193 32947 ft 443 kts 63°
2026-04-16 05:40 61.33885 108.32624 32950 ft 443 kts 63°
2026-04-16 05:40 61.36614 108.44133 32952 ft 443 kts 63°
2026-04-16 05:41 61.39352 108.55656 32954 ft 443 kts 63°
2026-04-16 05:41 61.42086 108.67189 32955 ft 443 kts 63°
2026-04-16 05:42 61.44805 108.78773 32957 ft 443 kts 64°
2026-04-16 05:42 61.47525 108.90268 32959 ft 443 kts 63°
2026-04-16 05:43 61.50237 109.01877 32960 ft 443 kts 64°
2026-04-16 05:43 61.52948 109.13499 32962 ft 443 kts 64°
2026-04-16 05:44 61.55640 109.25123 32963 ft 443 kts 64°
2026-04-16 05:44 61.58310 109.36724 32965 ft 443 kts 64°
2026-04-16 05:45 61.60985 109.48401 32966 ft 443 kts 64°
2026-04-16 05:45 61.63647 109.60090 32968 ft 443 kts 64°
2026-04-16 05:46 61.66299 109.71802 32969 ft 443 kts 64°
2026-04-16 05:46 61.68945 109.83546 32971 ft 443 kts 65°
2026-04-16 05:47 61.71565 109.95250 32972 ft 443 kts 65°
2026-04-16 05:47 61.74191 110.07020 32973 ft 443 kts 65°
2026-04-16 05:48 61.76802 110.18797 32975 ft 443 kts 65°
2026-04-16 05:48 61.79399 110.30565 32976 ft 443 kts 65°
2026-04-16 05:49 61.81995 110.42422 32977 ft 443 kts 65°
2026-04-16 05:49 61.84580 110.54285 32978 ft 443 kts 65°
2026-04-16 05:50 61.87151 110.66158 32979 ft 443 kts 65°
2026-04-16 05:50 61.89700 110.77996 32980 ft 443 kts 65°
2026-04-16 05:51 61.92250 110.89914 32984 ft 444 kts 66°
2026-04-16 05:51 61.94801 111.01887 32986 ft 444 kts 66°
2026-04-16 05:52 61.97333 111.13803 32987 ft 444 kts 66°
2026-04-16 05:52 61.99859 111.25810 32985 ft 444 kts 66°
2026-04-16 05:52 62.01119 111.31815 32642 ft 442 kts 66°
2026-04-16 05:53 62.02350 111.37721 32133 ft 441 kts 66°
2026-04-16 05:53 62.03591 111.43662 31518 ft 434 kts 66°
2026-04-16 05:53 62.04805 111.49484 30819 ft 425 kts 66°
2026-04-16 05:53 62.05986 111.55196 30092 ft 416 kts 66°
2026-04-16 05:54 62.07143 111.60788 29340 ft 407 kts 66°
2026-04-16 05:54 62.08270 111.66266 28567 ft 399 kts 67°
2026-04-16 05:54 62.09371 111.71640 27774 ft 390 kts 67°
2026-04-16 05:54 62.10436 111.76843 26975 ft 382 kts 67°
2026-04-16 05:55 62.11495 111.82012 26150 ft 374 kts 68°
2026-04-16 05:55 62.12517 111.87049 25382 ft 364 kts 68°
2026-04-16 05:55 62.13515 111.91953 24602 ft 355 kts 68°
2026-04-16 05:55 62.14493 111.96758 23807 ft 347 kts 68°
2026-04-16 05:56 62.15433 112.01395 23021 ft 341 kts 68°
2026-04-16 05:56 62.16374 112.06002 22223 ft 334 kts 68°
2026-04-16 05:56 62.17298 112.10521 21429 ft 328 kts 68°
2026-04-16 05:56 62.18194 112.14970 20637 ft 323 kts 68°
2026-04-16 05:57 62.19077 112.19366 19859 ft 317 kts 68°
2026-04-16 05:57 62.19954 112.23722 19207 ft 317 kts 67°
2026-04-16 05:57 62.20806 112.27993 18674 ft 313 kts 68°
2026-04-16 05:57 62.21656 112.32265 18178 ft 308 kts 67°
2026-04-16 05:58 62.22488 112.36446 17707 ft 303 kts 67°
2026-04-16 05:58 62.23307 112.40587 17259 ft 299 kts 68°
2026-04-16 05:58 62.24115 112.44679 16866 ft 296 kts 68°
2026-04-16 05:58 62.24921 112.48752 16476 ft 296 kts 68°
2026-04-16 05:59 62.25714 112.52767 16097 ft 294 kts 68°
2026-04-16 05:59 62.26506 112.56808 15718 ft 292 kts 68°
2026-04-16 05:59 62.27299 112.60824 15340 ft 290 kts 68°
2026-04-16 05:59 62.28083 112.64812 14963 ft 288 kts 68°
2026-04-16 06:00 62.28856 112.68776 14589 ft 286 kts 68°
2026-04-16 06:00 62.29645 112.72624 14220 ft 280 kts 66°
2026-04-16 06:00 62.30512 112.76318 13826 ft 273 kts 63°
2026-04-16 06:00 62.31423 112.79861 13410 ft 268 kts 62°
2026-04-16 06:01 62.32354 112.83302 12979 ft 264 kts 61°
2026-04-16 06:01 62.33292 112.86670 12543 ft 261 kts 60°
2026-04-16 06:01 62.34225 112.89993 12103 ft 258 kts 60°
2026-04-16 06:01 62.35147 112.93279 11660 ft 255 kts 60°
2026-04-16 06:02 62.36987 112.99712 10768 ft 252 kts 59°
2026-04-16 06:02 62.37904 113.02913 10318 ft 250 kts 59°
2026-04-16 06:02 62.38816 113.06106 9866 ft 249 kts 59°
2026-04-16 06:03 62.39730 113.09279 9417 ft 248 kts 59°
2026-04-16 06:03 62.40639 113.12451 8969 ft 247 kts 59°
2026-04-16 06:03 62.41537 113.15618 8524 ft 247 kts 59°
2026-04-16 06:03 62.42432 113.18761 8085 ft 245 kts 58°
2026-04-16 06:04 62.43318 113.21859 7658 ft 244 kts 58°
2026-04-16 06:04 62.44198 113.24972 7234 ft 242 kts 58°
2026-04-16 06:04 62.45074 113.28056 6870 ft 238 kts 58°
2026-04-16 06:04 62.45934 113.31073 6545 ft 233 kts 58°
2026-04-16 06:05 62.46772 113.34045 6207 ft 229 kts 58°
2026-04-16 06:05 62.47595 113.36959 5878 ft 225 kts 58°
2026-04-16 06:05 62.48409 113.39821 5575 ft 222 kts 58°
2026-04-16 06:05 62.49199 113.42639 5276 ft 222 kts 58°
2026-04-16 06:06 62.50001 113.45498 4976 ft 221 kts 58°
2026-04-16 06:06 62.50806 113.48329 4703 ft 219 kts 58°
2026-04-16 06:06 62.51603 113.51139 4455 ft 218 kts 58°
2026-04-16 06:06 62.52401 113.54001 4252 ft 227 kts 58°
2026-04-16 06:07 62.53217 113.56924 4108 ft 225 kts 58°
2026-04-16 06:07 62.54001 113.59707 3932 ft 214 kts 58°
2026-04-16 06:07 62.54761 113.62420 3713 ft 206 kts 58°
2026-04-16 06:07 62.55484 113.65021 3550 ft 193 kts 58°
2026-04-16 06:08 62.56115 113.67279 3601 ft 162 kts 58°
2026-04-16 06:08 62.56687 113.69328 3530 ft 158 kts 58°
2026-04-16 06:08 62.57256 113.71373 3410 ft 158 kts 58°
2026-04-16 06:08 62.57825 113.73419 3274 ft 158 kts 58°
2026-04-16 06:09 62.58392 113.75469 3134 ft 158 kts 58°
2026-04-16 06:09 62.58951 113.77476 2989 ft 157 kts 57°
2026-04-16 06:09 62.59519 113.79508 2847 ft 157 kts 58°
2026-04-16 06:09 62.60078 113.81533 2713 ft 156 kts 58°
2026-04-16 06:10 62.60633 113.83563 2577 ft 155 kts 59°
2026-04-16 06:10 62.61188 113.85574 2455 ft 154 kts 59°
2026-04-16 06:10 62.61738 113.87553 2457 ft 153 kts 59°
2026-04-16 06:10 62.62282 113.89528 2485 ft 156 kts 60°
2026-04-16 06:11 62.62847 113.91566 2510 ft 158 kts 59°
2026-04-16 06:11 62.63415 113.93611 2509 ft 158 kts 59°
2026-04-16 06:11 62.63980 113.95649 2512 ft 157 kts 59°
2026-04-16 06:11 62.64543 113.97689 2509 ft 157 kts 58°
2026-04-16 06:12 62.65106 113.99715 2508 ft 157 kts 58°
2026-04-16 06:12 62.65677 114.01779 2513 ft 160 kts 58°
2026-04-16 06:12 62.66245 114.03848 2514 ft 162 kts 58°
2026-04-16 06:12 62.66824 114.05969 2513 ft 164 kts 58°
2026-04-16 06:13 62.67410 114.08101 2514 ft 164 kts 58°
2026-04-16 06:13 62.67998 114.10241 2513 ft 165 kts 58°
2026-04-16 06:13 62.68584 114.12386 2511 ft 165 kts 58°
2026-04-16 06:13 62.69167 114.14538 2509 ft 165 kts 59°
2026-04-16 06:14 62.69751 114.16690 2510 ft 164 kts 59°
2026-04-16 06:14 62.70328 114.18777 2497 ft 156 kts 58°
2026-04-16 06:14 62.70758 114.20854 2469 ft 151 kts 75°
2026-04-16 06:14 62.70664 114.23086 2461 ft 150 kts 108°
2026-04-16 06:15 62.70060 114.24944 2503 ft 151 kts 132°
2026-04-16 06:15 62.69558 114.25997 2518 ft 152 kts 137°
2026-04-16 06:15 62.68757 114.27494 2517 ft 151 kts 141°
2026-04-16 06:15 62.67936 114.28919 2511 ft 150 kts 142°
2026-04-16 06:16 62.67100 114.30263 2549 ft 150 kts 144°
2026-04-16 06:16 62.65992 114.31962 2532 ft 144 kts 145°
2026-04-16 06:16 62.65436 114.32792 2515 ft 142 kts 146°
2026-04-16 06:16 62.64587 114.33887 2500 ft 142 kts 156°
2026-04-16 06:17 62.63628 114.33987 2482 ft 142 kts 190°
2026-04-16 06:17 62.62803 114.32865 2512 ft 141 kts 222°
2026-04-16 06:17 62.62155 114.31267 2532 ft 141 kts 230°
2026-04-16 06:17 62.61549 114.29612 2518 ft 139 kts 232°
2026-04-16 06:18 62.60960 114.27940 2514 ft 139 kts 232°
2026-04-16 06:18 62.60389 114.26259 2513 ft 138 kts 234°
2026-04-16 06:18 62.59845 114.24545 2509 ft 138 kts 236°
2026-04-16 06:18 62.59308 114.22817 2507 ft 138 kts 237°
2026-04-16 06:19 62.58772 114.21082 2506 ft 138 kts 237°
2026-04-16 06:19 62.58248 114.19394 2498 ft 135 kts 237°
2026-04-16 06:19 62.57722 114.17686 2433 ft 138 kts 237°
2026-04-16 06:19 62.57203 114.15998 2242 ft 132 kts 237°
2026-04-16 06:20 62.56689 114.14337 2071 ft 133 kts 237°
2026-04-16 06:20 62.56166 114.12647 1914 ft 137 kts 237°
2026-04-16 06:20 62.55630 114.10902 1740 ft 140 kts 237°
2026-04-16 06:20 62.55089 114.09159 1535 ft 142 kts 237°
2026-04-16 06:21 62.54547 114.07392 1343 ft 138 kts 237°
2026-04-16 06:21 62.54019 114.05689 1174 ft 132 kts 237°
2026-04-16 06:21 62.53551 114.04178 1165 ft 107 kts 236°
2026-04-16 06:21 62.53211 114.03067 1165 ft 70 kts 234°
2026-04-16 06:22 62.53006 114.02414 1165 ft 43 kts 237°
2026-04-16 06:22 62.52890 114.02033 1165 ft 14 kts 237°
2026-04-16 06:22 62.52856 114.01902 1165 ft 6 kts 265°
2026-04-16 06:22 62.52878 114.01829 1165 ft 7 kts 326°
2026-04-16 06:23 62.52933 114.01750 1165 ft 11 kts 327°
2026-04-16 06:23 62.52967 114.01668 1165 ft 4 kts 255°
2026-04-16 06:23 62.52942 114.01613 1165 ft 5 kts 176°
2026-04-16 06:23 62.52903 114.01654 1165 ft 0 kts 147°